Weather History for Camdenton, MO

Change the Weather History Date:

Sunday, January 6, 2013

  Actual Average (KAIZ) Record (KAIZ)
Temperature  
Mean Temperature 30 °F -  
Max Temperature 35 °F 40 °F 73 °F (2008)
Min Temperature 24 °F 23 °F -11 °F (2014)
Degree Days  
Heating Degree Days 36    
Moisture  
Dew Point 23 °F    
Average Humidity 71    
Maximum Humidity 93    
Minimum Humidity 52    
Precipitation  
Precipitation 0.00 in - - ()
Sea Level Pressure  
Sea Level Pressure 30.29 in    
Wind  
Wind Speed 8 mph (West)    
Max Wind Speed 21 mph    
Max Gust Speed 28 mph    
Visibility 10 miles    
Events      
Averages and records for this station are not official NWS values.
T = Trace of Precipitation, MM = Missing Value Source: NWS Daily Summary

Daily Weather History Graph

Daily Weather History Graph

Search for Another Location

Airport:

Trip Planner

Search our weather history database for the weather conditions in past years. The results will help you decide how hot, cold, wet, or windy it might be!

Date:

Astronomy

Jan. 06, 2013 Rise Set
Actual Time 7:27 AM CST 5:06 PM CST
Civil Twilight 6:57 AM CST 5:35 PM CST
Nautical Twilight 6:25 AM CST 6:08 PM CST
Astronomical Twilight 5:53 AM CST 6:40 PM CST
Moon 1:44 AM CST (1/6) 12:32 PM CST (1/6)
Length of Visible Light 10h 38m
Length of Day
9h 39m
Waning Crescent, 33% of the Moon is Illuminated
Jan 6
Waning Crescent
Jan 11
New
Jan 18
First Quarter
Jan 26
Full
Feb 3
Last Quarter

Hourly Weather History & Observations

Time (CST) Temp. Windchill Dew Point Humidity Pressure Visibility Wind Dir Wind Speed Gust Speed Precip Events Conditions
12:15 AM 35.6 °F 28.6 °F 30.2 °F 81% 30.16 in 10.0 mi SW 9.2 mph - N/A   Clear
12:35 AM 33.8 °F 27.0 °F 30.2 °F 87% 30.16 in 10.0 mi WSW 8.1 mph - N/A   Clear
12:55 AM 33.8 °F 27.0 °F 30.2 °F 87% 30.16 in 10.0 mi SW 8.1 mph - N/A   Clear
1:15 AM 33.8 °F 27.0 °F 30.2 °F 87% 30.16 in 10.0 mi SW 8.1 mph - N/A   Clear
1:35 AM 32.0 °F 24.2 °F 30.2 °F 93% 30.16 in 10.0 mi SW 9.2 mph - N/A   Clear
1:55 AM 32.0 °F 24.2 °F 30.2 °F 93% 30.17 in 10.0 mi SW 9.2 mph - N/A   Clear
2:15 AM 32.0 °F 25.6 °F 30.2 °F 93% 30.18 in 10.0 mi SW 6.9 mph - N/A   Clear
2:35 AM 32.0 °F 24.8 °F 28.4 °F 87% 30.18 in 10.0 mi SW 8.1 mph - N/A   Clear
2:55 AM 32.0 °F 25.6 °F 28.4 °F 87% 30.18 in 10.0 mi SW 6.9 mph - N/A   Clear
3:15 AM 32.0 °F 25.6 °F 28.4 °F 87% 30.18 in 10.0 mi WSW 6.9 mph - N/A   Clear
3:35 AM 32.0 °F 24.8 °F 28.4 °F 87% 30.18 in 10.0 mi WSW 8.1 mph - N/A   Clear
3:55 AM 32.0 °F 24.2 °F 26.6 °F 80% 30.18 in 10.0 mi WSW 9.2 mph - N/A   Clear
4:15 AM 32.0 °F 24.8 °F 26.6 °F 80% 30.18 in 10.0 mi WSW 8.1 mph - N/A   Clear
4:35 AM 32.0 °F 23.6 °F 26.6 °F 80% 30.18 in 10.0 mi WSW 10.4 mph - N/A   Clear
4:55 AM 30.2 °F 21.3 °F 26.6 °F 86% 30.19 in 10.0 mi West 10.4 mph - N/A   Clear
5:15 AM 30.2 °F 21.3 °F 26.6 °F 86% 30.19 in 10.0 mi West 10.4 mph - N/A   Clear
5:35 AM 30.2 °F 20.2 °F 26.6 °F 86% 30.20 in 10.0 mi West 12.7 mph 17.3 mph N/A   Scattered Clouds
5:55 AM 30.2 °F 17.4 °F 23.0 °F 75% 30.22 in 10.0 mi WNW 20.7 mph 27.6 mph N/A   Overcast
6:15 AM 30.2 °F 18.5 °F 23.0 °F 75% 30.23 in 10.0 mi WNW 17.3 mph 20.7 mph N/A   Overcast
6:35 AM 28.4 °F 18.0 °F 21.2 °F 74% 30.24 in 10.0 mi WNW 12.7 mph 19.6 mph N/A   Overcast
6:55 AM 28.4 °F 16.6 °F 21.2 °F 74% 30.25 in 10.0 mi WNW 16.1 mph 21.9 mph N/A   Overcast
7:15 AM 28.4 °F 15.8 °F 21.2 °F 74% 30.26 in 10.0 mi WNW 18.4 mph 24.2 mph N/A   Overcast
7:35 AM 28.4 °F 16.6 °F 21.2 °F 74% 30.27 in 10.0 mi WNW 16.1 mph 23.0 mph N/A   Overcast
7:55 AM 28.4 °F 18.5 °F 21.2 °F 74% 30.28 in 10.0 mi WNW 11.5 mph - N/A   Overcast
8:35 AM 28.4 °F 20.4 °F 21.2 °F 74% 30.29 in 10.0 mi West 8.1 mph - N/A   Overcast
8:55 AM 28.4 °F 19.1 °F 21.2 °F 74% 30.31 in 10.0 mi West 10.4 mph - N/A   Overcast
9:15 AM 28.4 °F 18.0 °F 21.2 °F 74% 30.31 in 10.0 mi West 12.7 mph 19.6 mph N/A   Overcast
9:35 AM 30.2 °F 21.9 °F 21.2 °F 69% 30.31 in 10.0 mi WNW 9.2 mph - N/A   Mostly Cloudy
9:55 AM 30.2 °F 21.3 °F 21.2 °F 69% 30.33 in 10.0 mi WNW 10.4 mph - N/A   Mostly Cloudy
10:15 AM 30.2 °F 21.3 °F 23.0 °F 75% 30.33 in 10.0 mi WNW 10.4 mph - N/A   Scattered Clouds
10:35 AM 30.2 °F 20.8 °F 23.0 °F 75% 30.34 in 10.0 mi West 11.5 mph - N/A   Mostly Cloudy
10:55 AM 30.2 °F 21.3 °F 23.0 °F 75% 30.35 in 10.0 mi WNW 10.4 mph - N/A   Mostly Cloudy
11:15 AM 32.0 °F 24.2 °F 23.0 °F 69% 30.34 in 10.0 mi WNW 9.2 mph - N/A   Mostly Cloudy
11:35 AM 30.2 °F 21.9 °F 23.0 °F 75% 30.34 in 10.0 mi West 9.2 mph - N/A   Scattered Clouds
11:55 AM 32.0 °F 24.8 °F 23.0 °F 69% 30.34 in 10.0 mi West 8.1 mph - N/A   Scattered Clouds
12:15 PM 32.0 °F 24.2 °F 23.0 °F 69% 30.33 in 10.0 mi WSW 9.2 mph - N/A   Clear
12:35 PM 32.0 °F 23.0 °F 23.0 °F 69% 30.33 in 10.0 mi West 11.5 mph - N/A   Clear
12:55 PM 32.0 °F 24.2 °F 23.0 °F 69% 30.33 in 10.0 mi West 9.2 mph - N/A   Clear
1:15 PM 33.8 °F 26.4 °F 23.0 °F 65% 30.33 in 10.0 mi WNW 9.2 mph - N/A   Clear
1:35 PM 33.8 °F 26.4 °F 23.0 °F 65% 30.33 in 10.0 mi WNW 9.2 mph - N/A   Clear
1:55 PM 33.8 °F 27.0 °F 23.0 °F 65% 30.33 in 10.0 mi West 8.1 mph - N/A   Clear
2:15 PM 35.6 °F 29.9 °F 21.2 °F 56% 30.33 in 10.0 mi NW 6.9 mph - N/A   Clear
2:35 PM 35.6 °F 29.2 °F 21.2 °F 56% 30.33 in 10.0 mi West 8.1 mph - N/A   Clear
2:55 PM 35.6 °F 30.7 °F 21.2 °F 56% 30.33 in 10.0 mi NW 5.8 mph - N/A   Clear
3:15 PM 35.6 °F 29.9 °F 19.4 °F 52% 30.33 in 10.0 mi NNW 6.9 mph - N/A   Clear
3:35 PM 35.6 °F 29.9 °F 19.4 °F 52% 30.33 in 10.0 mi NW 6.9 mph - N/A   Clear
3:55 PM 35.6 °F - 19.4 °F 52% 30.33 in 10.0 mi Calm Calm - N/A   Clear
4:35 PM 35.6 °F - 19.4 °F 52% 30.34 in 10.0 mi Calm Calm - N/A   Clear
4:55 PM 35.6 °F - 19.4 °F 52% 30.34 in 10.0 mi Calm Calm - N/A   Clear
5:15 PM 33.8 °F - 19.4 °F 56% 30.34 in 10.0 mi Calm Calm - N/A   Clear
5:35 PM 33.8 °F - 19.4 °F 56% 30.34 in 10.0 mi Calm Calm - N/A   Clear
5:55 PM 33.8 °F - 19.4 °F 56% 30.34 in 10.0 mi Calm Calm - N/A   Clear
6:15 PM 32.0 °F - 19.4 °F 60% 30.35 in 10.0 mi Calm Calm - N/A   Clear
6:35 PM 32.0 °F - 19.4 °F 60% 30.35 in 10.0 mi Calm Calm - N/A   Clear
6:55 PM 32.0 °F - 19.4 °F 60% 30.36 in 10.0 mi Calm Calm - N/A   Clear
7:15 PM 32.0 °F - 19.4 °F 60% 30.35 in 7.0 mi Calm Calm - N/A   Clear
7:35 PM 32.0 °F - 19.4 °F 60% 30.35 in 10.0 mi Calm Calm - N/A   Clear
7:55 PM 30.2 °F - 19.4 °F 64% 30.35 in 10.0 mi Calm Calm - N/A   Clear
8:15 PM 32.0 °F - 19.4 °F 60% 30.36 in 10.0 mi Calm Calm - N/A   Clear
8:35 PM 32.0 °F - 19.4 °F 60% 30.35 in 10.0 mi Calm Calm - N/A   Clear
8:55 PM 30.2 °F 26.7 °F 19.4 °F 64% 30.35 in 10.0 mi SSE 3.5 mph - N/A   Clear
9:15 PM 26.6 °F 21.2 °F 19.4 °F 74% 30.36 in 10.0 mi SSE 4.6 mph - N/A   Clear
9:55 PM 26.6 °F 21.2 °F 17.6 °F 69% 30.35 in 10.0 mi SSE 4.6 mph - N/A   Clear
10:15 PM 24.8 °F 17.9 °F 19.4 °F 80% 30.35 in 10.0 mi SSE 5.8 mph - N/A   Clear
10:35 PM 26.6 °F 19.1 °F 19.4 °F 74% 30.35 in 10.0 mi SSE 6.9 mph - N/A   Clear
10:55 PM 30.2 °F 23.4 °F 19.4 °F 64% 30.35 in 10.0 mi SSE 6.9 mph - N/A   Clear
11:35 PM 30.2 °F 24.3 °F 19.4 °F 64% 30.35 in 10.0 mi South 5.8 mph - N/A   Clear
11:55 PM 30.2 °F 22.6 °F 19.4 °F 64% 30.35 in 10.0 mi SSE 8.1 mph - N/A   Clear